FW0954 Weather Reports


Display with metric or nautical units.
time (UTC)temp
F
wind
direction
speed
MPH
gust
MPH
rain 1hr
in
rain 24hr
in
rain mn
in
humidity
%
barometer
mb
20260904030002 81 171 2.0 8.0 0.00 0.00 0.00 76 1013.7
20260904025501 82 173 2.0 7.0 0.00 0.00 0.00 76 1013.6
20260904025001 82 170 2.0 7.0 0.00 0.00 0.00 76 1013.6
20260904024502 82 162 1.0 6.0 0.00 0.00 0.00 76 1013.5
20260904024002 82 165 1.0 6.0 0.00 0.00 0.00 76 1013.4
20260904023501 82 173 2.0 6.0 0.00 0.00 0.00 76 1013.2
20260904023001 82 171 1.0 7.0 0.00 0.00 0.00 76 1013.2
20260904022501 82 172 2.0 7.0 0.00 0.00 0.00 76 1012.9
20260904022001 82 181 2.0 7.0 0.00 0.00 0.00 76 1012.8
20260904021001 83 173 2.0 5.0 0.00 0.00 0.00 78 1012.7
20260904020501 83 173 2.0 5.0 0.00 0.00 0.00 78 1012.7
20260904020001 83 166 1.0 5.0 0.00 0.00 0.00 77 1012.7
20260904015501 83 165 2.0 5.0 0.00 0.00 0.00 76 1012.5
20260904015001 83 168 2.0 10.0 0.00 0.00 0.00 76 1012.5
20260904014501 84 167 2.0 10.0 0.00 0.00 0.00 75 1012.4
20260904014002 84 173 2.0 8.0 0.00 0.00 0.00 75 1012.4
20260904013501 84 175 3.0 6.0 0.00 0.00 0.00 75 1012.3
20260904013001 84 174 2.0 8.0 0.00 0.00 0.00 75 1012.3
20260904012502 84 173 2.0 8.0 0.00 0.00 0.00 75 1012.2
20260904012002 85 170 2.0 7.0 0.00 0.00 0.00 75 1012.1
20260904011501 85 169 2.0 8.0 0.00 0.00 0.00 74 1012.0
20260904011001 85 167 2.0 8.0 0.00 0.00 0.00 74 1012.0
20260904010001 86 177 3.0 7.0 0.00 0.00 0.00 74 1011.9
20260904004502 86 160 2.0 7.0 0.00 0.00 0.00 72 1012.0
20260904004001 86 162 2.0 8.0 0.00 0.00 0.00 72 1012.0
20260904003501 87 164 2.0 9.0 0.00 0.00 0.00 71 1012.0
20260904003001 87 163 2.0 9.0 0.00 0.00 0.00 70 1011.8
20260904002501 88 163 2.0 8.0 0.00 0.00 0.00 69 1011.9
20260904001501 88 161 2.0 7.0 0.00 0.00 0.00 68 1011.9
20260904001001 89 163 3.0 9.0 0.00 0.00 0.00 68 1011.8
20260904000502 89 160 4.0 9.0 0.00 0.00 0.00 67 1011.8
20260904000002 89 151 3.0 9.0 0.00 0.00 0.00 66 1011.8
20260903235501 90 156 3.0 7.0 0.00 0.00 0.00 65 1011.8
20260903235002 90 162 3.0 8.0 0.00 0.00 0.00 65 1011.7
20260903234502 90 154 3.0 8.0 0.00 0.00 0.00 65 1011.6
20260903234001 90 156 3.0 8.0 0.00 0.00 0.00 65 1011.7
20260903233501 90 160 3.0 8.0 0.00 0.00 0.00 65 1011.7
20260903233001 90 157 3.0 8.0 0.00 0.00 0.00 65 1011.6
20260903232501 91 159 2.0 8.0 0.00 0.00 0.00 65 1011.6
20260903232001 91 166 2.0 8.0 0.00 0.00 0.00 65 1011.5
20260903231501 90 164 3.0 10.0 0.00 0.00 0.00 66 1011.6
20260903231001 91 155 3.0 10.0 0.00 0.00 0.00 66 1011.6
20260903230501 91 157 3.0 9.0 0.00 0.00 0.00 66 1011.5
20260903230002 91 161 3.0 10.0 0.00 0.00 0.00 67 1011.6
20260903225002 91 153 3.0 9.0 0.00 0.00 0.00 67 1011.5
20260903224502 91 144 3.0 9.0 0.00 0.00 0.00 66 1011.5
20260903224001 92 157 3.0 9.0 0.00 0.00 0.00 65 1011.5
20260903223501 92 159 3.0 9.0 0.00 0.00 0.00 65 1011.5
20260903223002 92 138 2.0 7.0 0.00 0.00 0.00 64 1011.5
20260903222502 93 117 1.0 7.0 0.00 0.00 0.00 64 1011.4
20260903221501 93 156 2.0 6.0 0.00 0.00 0.00 63 1011.4
20260903221002 93 171 3.0 11.0 0.00 0.00 0.00 62 1011.4
20260903220502 92 176 4.0 11.0 0.00 0.00 0.00 62 1011.5
20260903220002 93 174 3.0 9.0 0.00 0.00 0.00 61 1011.5
20260903215501 93 161 2.0 7.0 0.00 0.00 0.00 62 1011.6
20260903215002 93 166 3.0 8.0 0.00 0.00 0.00 62 1011.7
20260903214502 93 160 3.0 8.0 0.00 0.00 0.00 62 1011.7
20260903214001 93 168 3.0 10.0 0.00 0.00 0.00 62 1011.8
20260903213001 94 174 2.0 10.0 0.00 0.00 0.00 61 1011.8
20260903212502 93 187 3.0 8.0 0.00 0.00 0.00 62 1011.8
20260903212002 93 190 3.0 8.0 0.00 0.00 0.00 62 1011.9
20260903211502 93 170 3.0 8.0 0.00 0.00 0.00 63 1011.9
20260903210502 92 179 3.0 11.0 0.00 0.00 0.00 64 1012.1
20260903205502 91 187 4.0 10.0 0.00 0.00 0.00 65 1012.2
20260903204502 91 179 4.0 10.0 0.00 0.00 0.00 65 1012.2
20260903204002 91 185 4.0 10.0 0.00 0.00 0.00 66 1012.3
20260903203502 90 184 4.0 12.0 0.00 0.00 0.00 66 1012.5
20260903203002 90 181 4.0 12.0 0.00 0.00 0.00 66 1012.5
20260903202002 90 191 4.0 11.0 0.00 0.00 0.00 67 1012.8
20260903201002 90 182 5.0 10.0 0.00 0.00 0.00 67 1012.7
20260903200502 89 184 4.0 10.0 0.00 0.00 0.00 69 1012.7
20260903200002 89 179 4.0 12.0 0.00 0.00 0.00 69 1012.8
20260903195502 88 165 4.0 12.0 0.00 0.00 0.00 69 1012.8
20260903195002 88 168 5.0 11.0 0.00 0.00 0.00 70 1012.8
20260903194002 87 178 5.0 11.0 0.00 0.00 0.00 71 1012.8
20260903193502 88 177 5.0 11.0 0.00 0.00 0.00 70 1012.9
20260903193002 87 174 5.0 11.0 0.00 0.00 0.00 71 1013.0
20260903192502 87 181 5.0 11.0 0.00 0.00 0.00 71 1013.2
20260903192002 87 184 5.0 11.0 0.00 0.00 0.00 71 1013.2
20260903191502 87 177 4.0 11.0 0.00 0.00 0.00 72 1013.4
20260903191002 86 171 4.0 11.0 0.00 0.00 0.00 72 1013.5
20260903190502 86 172 5.0 11.0 0.00 0.00 0.00 73 1013.6
20260903190002 86 186 5.0 12.0 0.00 0.00 0.00 73 1013.8
20260903185003 87 166 5.0 11.0 0.00 0.00 0.00 72 1013.8
20260903184502 87 167 5.0 11.0 0.00 0.00 0.00 72 1013.7
20260903184002 87 166 5.0 11.0 0.00 0.00 0.00 72 1013.8
20260903183501 87 172 5.0 12.0 0.00 0.00 0.00 73 1013.8
20260903183003 86 177 4.0 12.0 0.00 0.00 0.00 73 1013.8
20260903182501 86 179 4.0 11.0 0.00 0.00 0.00 75 1014.0
20260903182003 86 179 4.0 11.0 0.00 0.00 0.00 74 1013.9
20260903181503 85 177 5.0 12.0 0.00 0.00 0.00 75 1014.0
20260903181002 85 182 6.0 14.0 0.00 0.00 0.00 75 1014.0
20260903180503 85 184 5.0 14.0 0.00 0.00 0.00 76 1014.1
20260903180003 84 186 5.0 12.0 0.00 0.00 0.00 77 1014.2
20260903175503 84 186 6.0 12.0 0.00 0.00 0.00 78 1014.2
20260903175002 84 178 5.0 14.0 0.00 0.00 0.00 78 1014.3
20260903174502 84 171 5.0 14.0 0.00 0.00 0.00 78 1014.3
20260903174002 84 175 4.0 11.0 0.00 0.00 0.00 79 1014.3
20260903173502 83 176 4.0 11.0 0.00 0.00 0.00 79 1014.4
20260903172502 83 183 6.0 15.0 0.00 0.00 0.00 80 1014.6
20260903172003 82 182 6.0 16.0 0.00 0.00 0.00 81 1014.5
20260903171002 82 184 6.0 15.0 0.00 0.00 0.00 82 1014.5
20260903170003 82 179 5.0 14.0 0.00 0.00 0.00 83 1014.6
20260903165003 82 169 4.0 12.0 0.00 0.00 0.00 83 1014.5
20260903164503 82 164 4.0 13.0 0.00 0.00 0.00 83 1014.4
20260903164002 82 160 3.0 13.0 0.00 0.00 0.00 83 1014.4
20260903163002 82 170 4.0 12.0 0.00 0.00 0.00 84 1014.4
20260903162502 82 171 4.0 12.0 0.00 0.00 0.00 83 1014.4
20260903161503 82 177 3.0 8.0 0.00 0.00 0.00 83 1014.4
20260903161002 82 174 3.0 7.0 0.00 0.00 0.00 84 1014.3
20260903160502 82 176 3.0 8.0 0.00 0.00 0.00 84 1014.3
20260903160002 82 177 4.0 8.0 0.00 0.00 0.00 84 1014.2
20260903155502 82 174 3.0 9.0 0.00 0.00 0.00 84 1014.3
20260903155002 82 178 2.0 9.0 0.00 0.00 0.00 85 1014.2
20260903154502 82 175 3.0 9.0 0.00 0.00 0.00 86 1014.2
20260903154002 81 177 3.0 9.0 0.00 0.00 0.00 86 1014.1
20260903153002 81 177 4.0 10.0 0.00 0.00 0.00 87 1014.1
20260903152002 81 170 3.0 9.0 0.00 0.00 0.00 88 1014.2
20260903151002 80 169 3.0 9.0 0.00 0.00 0.00 88 1014.2
20260903150503 80 162 3.0 7.0 0.00 0.00 0.00 89 1014.2
20260903150002 80 161 2.0 6.0 0.00 0.00 0.00 89 1014.2
20260903145502 80 148 1.0 6.0 0.00 0.00 0.00 90 1014.2
20260903145003 80 150 2.0 6.0 0.00 0.00 0.00 90 1014.1
20260903144503 80 161 2.0 6.0 0.00 0.00 0.00 90 1014.2
20260903143502 80 169 2.0 9.0 0.00 0.00 0.00 90 1014.1
20260903143002 80 162 1.0 9.0 0.00 0.00 0.00 90 1014.1
20260903142503 80 159 2.0 8.0 0.00 0.00 0.00 90 1014.3
20260903141502 80 161 2.0 5.0 0.00 0.00 0.00 91 1014.2
20260903141002 80 167 2.0 7.0 0.00 0.00 0.00 92 1014.3
20260903140503 80 170 2.0 7.0 0.00 0.00 0.00 92 1014.3
20260903140003 79 172 1.0 5.0 0.00 0.00 0.00 93 1014.2
20260903135503 79 171 1.0 5.0 0.00 0.00 0.00 93 1014.3
20260903134503 79 166 2.0 6.0 0.00 0.00 0.00 93 1014.3
20260903133503 79 148 2.0 9.0 0.00 0.00 0.00 93 1014.2
20260903132502 79 159 2.0 8.0 0.00 0.00 0.00 93 1014.2
20260903132003 78 155 2.0 6.0 0.00 0.00 0.00 93 1014.2
20260903131002 78 132 1.0 4.0 0.00 0.00 0.00 93 1014.2
20260903130503 78 108 1.0 3.0 0.00 0.00 0.00 93 1014.1
20260903130003 78 185 1.0 4.0 0.00 0.00 0.00 93 1014.0
20260903125502 78 159 1.0 4.0 0.00 0.00 0.00 93 1013.8
20260903124502 78 161 2.0 6.0 0.00 0.00 0.00 93 1013.9
20260903124003 78 162 2.0 6.0 0.00 0.00 0.00 93 1013.8
20260903123503 78 160 1.0 5.0 0.00 0.00 0.00 94 1013.9
20260903123003 78 152 1.0 4.0 0.00 0.00 0.00 94 1014.0
20260903122002 77 166 1.0 4.0 0.00 0.00 0.00 94 1013.8
20260903121502 77 172 1.0 5.0 0.00 0.00 0.00 94 1013.8
20260903121003 77 164 1.0 6.0 0.00 0.00 0.00 94 1013.7
20260903120503 77 160 2.0 6.0 0.00 0.00 0.00 94 1013.7
20260903120002 77 160 2.0 5.0 0.00 0.00 0.00 94 1013.7
20260903115503 77 162 1.0 7.0 0.00 0.00 0.00 94 1013.7
20260903115003 77 167 1.0 7.0 0.00 0.00 0.00 94 1013.6
20260903114502 77 167 2.0 6.0 0.00 0.00 0.00 94 1013.5
20260903114003 77 172 1.0 4.0 0.00 0.00 0.00 94 1013.5
20260903112003 77 172 1.0 4.0 0.00 0.00 0.00 94 1013.5
20260903111503 77 169 0.0 2.0 0.00 0.00 0.00 94 1013.5
20260903111002 77 167 0.0 3.0 0.00 0.00 0.00 94 1013.5
20260903110503 77 161 0.0 3.0 0.00 0.00 0.00 94 1013.5
20260903110002 77 150 0.0 2.0 0.00 0.00 0.00 94 1013.5
20260903105003 77 169 0.0 1.0 0.00 0.00 0.00 94 1013.4
20260903104003 77 165 1.0 4.0 0.00 0.00 0.00 94 1013.4
20260903103503 77 166 1.0 4.0 0.00 0.00 0.00 94 1013.4
20260903103002 77 164 1.0 4.0 0.00 0.00 0.00 94 1013.3
20260903102503 76 163 0.0 3.0 0.00 0.00 0.00 94 1013.3
20260903102002 76 169 0.0 2.0 0.00 0.00 0.00 94 1013.3
20260903101003 76 168 0.0 3.0 0.00 0.00 0.00 94 1013.2
20260903100503 76 169 0.0 2.0 0.00 0.00 0.00 94 1013.2
20260903095003 76 173 1.0 5.0 0.00 0.00 0.00 93 1013.4
20260903094003 76 163 1.0 4.0 0.00 0.00 0.00 93 1013.3
20260903093003 77 165 1.0 5.0 0.00 0.00 0.00 93 1013.3
20260903092503 77 165 1.0 5.0 0.00 0.00 0.00 92 1013.5
20260903092003 77 161 1.0 4.0 0.00 0.00 0.00 92 1013.4
20260903090503 77 169 1.0 5.0 0.00 0.00 0.00 91 1013.3
20260903090004 77 184 1.0 6.0 0.00 0.00 0.00 91 1013.2
20260903085503 76 172 1.0 6.0 0.00 0.00 0.00 91 1013.1
20260903085003 76 205 2.0 5.0 0.00 0.00 0.00 92 1013.1
20260903084503 76 275 2.0 6.0 0.00 0.00 0.00 92 1012.9
20260903084003 76 278 2.0 8.0 0.00 0.00 0.00 92 1012.7
20260903083502 76 268 2.0 8.0 0.00 0.00 0.00 92 1012.7
20260903082003 77 167 1.0 5.0 0.00 0.00 0.00 93 1013.1
20260903080003 78 169 0.0 3.0 0.00 0.00 0.00 92 1012.9
20260903075503 78 166 0.0 2.0 0.00 0.00 0.00 92 1012.9
20260903074503 78 184 1.0 4.0 0.00 0.00 0.00 91 1012.7
20260903074003 78 184 1.0 4.0 0.00 0.00 0.00 91 1012.7
20260903073503 78 162 0.0 4.0 0.00 0.00 0.00 91 1012.7
20260903073003 78 117 0.0 3.0 0.00 0.00 0.00 91 1012.7
20260903072503 78 99 0.0 3.0 0.00 0.00 0.00 90 1012.8
20260903072003 78 98 0.0 2.0 0.00 0.00 0.00 90 1012.7
20260903071503 78 99 0.0 2.0 0.00 0.00 0.00 89 1012.9
20260903071003 79 98 0.0 2.0 0.00 0.00 0.00 89 1012.9
20260903070503 79 90 0.0 2.0 0.00 0.00 0.00 88 1013.0
20260903070004 79 96 1.0 6.0 0.00 0.00 0.00 88 1013.0
20260903065503 80 99 1.0 6.0 0.00 0.00 0.00 87 1012.9
20260903065003 80 104 1.0 6.0 0.00 0.00 0.00 86 1012.9
20260903064503 80 101 1.0 4.0 0.00 0.00 0.00 85 1012.9
20260903064003 80 97 0.0 3.0 0.00 0.00 0.00 85 1013.0
20260903062504 80 114 0.0 1.0 0.00 0.00 0.00 85 1012.8
20260903062003 80 119 0.0 3.0 0.00 0.00 0.00 85 1012.7
20260903061503 80 123 0.0 3.0 0.00 0.00 0.00 85 1012.8
20260903061003 80 130 0.0 1.0 0.00 0.00 0.00 85 1012.9
20260903060503 80 86 0.0 3.0 0.00 0.00 0.00 85 1012.9
20260903060004 80 105 0.0 3.0 0.00 0.00 0.00 85 1013.1
20260903055503 80 111 0.0 4.0 0.00 0.00 0.00 85 1013.1
20260903055004 80 85 0.0 4.0 0.00 0.00 0.00 84 1013.2
20260903054504 80 88 1.0 3.0 0.00 0.00 0.00 84 1013.4
20260903054003 80 101 0.0 3.0 0.00 0.00 0.00 83 1013.4
20260903053503 80 121 0.0 4.0 0.00 0.00 0.00 83 1013.5
20260903053003 80 106 1.0 4.0 0.00 0.00 0.00 83 1013.5
20260903052504 80 89 1.0 5.0 0.00 0.00 0.00 83 1013.5
20260903052003 80 83 2.0 7.0 0.00 0.00 0.00 83 1013.5
20260903051504 80 87 1.0 7.0 0.00 0.00 0.00 82 1013.6
20260903051003 81 85 1.0 7.0 0.00 0.00 0.00 82 1013.5
20260903050503 81 71 1.0 7.0 0.00 0.00 0.00 81 1013.5
20260903050004 81 69 1.0 9.0 0.00 0.00 0.00 80 1013.7
20260903045503 81 85 0.0 9.0 0.00 0.00 0.00 80 1013.8
20260903045004 81 89 1.0 6.0 0.00 0.00 0.00 80 1013.9
20260903044001 81 83 1.0 4.0 0.00 0.00 0.00 79 1013.8
20260903043501 81 88 1.0 5.0 0.00 0.00 0.00 79 1013.7
20260903043001 82 90 1.0 5.0 0.00 0.00 0.00 78 1013.7
20260903041501 82 83 2.0 9.0 0.00 0.00 0.00 76 1013.6
20260903040001 83 81 1.0 7.0 0.00 0.00 0.00 76 1013.8
20260903035501 83 82 1.0 7.0 0.00 0.00 0.00 76 1013.7
20260903035002 83 91 1.0 7.0 0.00 0.00 0.00 75 1013.8
20260903034501 83 111 1.0 6.0 0.00 0.00 0.00 75 1013.7
20260903034001 83 114 1.0 4.0 0.00 0.00 0.00 75 1013.7
20260903033501 83 94 1.0 6.0 0.00 0.00 0.00 74 1013.7
20260903033002 84 90 1.0 6.0 0.00 0.00 0.00 74 1013.5
20260903032501 84 97 1.0 6.0 0.00 0.00 0.00 74 1013.6
20260903032001 84 90 1.0 6.0 0.00 0.00 0.00 74 1013.6
20260903031501 84 83 1.0 6.0 0.00 0.00 0.00 73 1013.5
20260903031002 84 85 1.0 6.0 0.00 0.00 0.00 73 1013.4
20260903030502 84 90 1.0 5.0 0.00 0.00 0.00 72 1013.5